STARLINK-4015

operational
NORAD ID: 52616 Int'l Des: 2022-052 Owner: SPXS Country: US Constellation: starlink
LEOCIRCULAR

Über STARLINK-4015

Beschreibung wird geladen...

Live-Position

3D-Globus wird geladen...

Nächste Überflüge

Höhenverlauf

Altitude vs Time

uPlot chart will show altitude changes over time

Zweizeiliger Elementsatz

1 52616U 22052U 25251.52597086 -.00000494 00000-0 -12979-4 0 9999
2 52616 53.2189 6.8862 0001394 106.4862 253.6283 15.08841616183498
Epoch: 8. Sept. 2025 • Age: 7 hours

Aktueller Status

Höhe 543.1 km
Geschwindigkeit 7.59 km/s
Subsatellitenpunkt -12.67°S, 90.66°W
Startdatum 14. Mai 2022
Alter 3.3 years
Typ internet

Technische Details

Klassifizierung Payload
Masse 297.00 kg
Trockenmasse 275.00 kg
Gesamtmasse 297.00 kg
Länge 0.20 m
Durchmesser 2.80 m
Spannweite 9.00 m
Form Box + pan
Hersteller SPXS
Bus-Typ Starlink
Phasenstatus In Orbit
Besitzer/Staat SPXS/US

Große Konstellationen

Loading constellations...